Simultaneous Nadir Overpasses (SNOs) Predictions

Prediction of SNOs between METOP-A and NOAA-19 Satellite Orbit:

Table of predicted SNOs for the next 14.0 days since TLE Epoch: 2/9/2018
Index Date (METOP-A) Time (METOP-A) Lat,Lon (METOP-A) SZA (METOP-A ) Date (NOAA-19) Time (NOAA-19) Lat,Lon (NOAA-19) SZA (NOAA-19 ) Distance(km) Time Diff (sec)
1 02/11/2018 21:35:10 78.14,-136.53 91.91 02/11/2018 21:34:02 78.15,-136.47 91.91 1.82 68
2 02/11/2018 22:25:51 -78.14, 30.80 88.11 02/11/2018 22:25:06 -78.12, 30.92 88.13 3.25 45
3 02/11/2018 23:16:32 78.12,-161.98 91.86 02/11/2018 23:16:03 78.14,-161.90 91.88 2.76 29
4 02/12/2018 00:07:13 -78.12, 5.35 88.16 02/12/2018 00:07:07 -78.11, 5.48 88.16 3.03 6
5 02/12/2018 00:57:53 78.14, 172.78 91.86 02/12/2018 00:58:04 78.13, 172.66 91.85 3.08 11
6 02/12/2018 01:48:35 -78.10, -20.10 88.20 02/12/2018 01:49:08 -78.10, -19.96 88.19 3.20 33
7 02/12/2018 02:39:15 78.12, 147.33 91.81 02/12/2018 02:40:05 78.11, 147.23 91.81 2.49 50
8 02/12/2018 03:29:56 -78.12, -45.33 88.20 02/12/2018 03:31:09 -78.09, -45.40 88.23 3.36 73
9 02/22/2018 16:53:32 -78.19, 114.09 91.82 02/22/2018 16:52:18 -78.19, 114.10 91.83 0.78 74
10 02/22/2018 17:44:13 78.16, -78.73 88.15 02/22/2018 17:43:17 78.20, -78.74 88.18 4.19 56
11 02/22/2018 18:34:54 -78.17, 88.64 91.86 02/22/2018 18:34:19 -78.17, 88.66 91.86 0.55 35
12 02/22/2018 19:25:34 78.18,-103.97 88.14 02/22/2018 19:25:17 78.15,-103.96 88.11 3.36 17
13 02/22/2018 20:16:16 -78.15, 63.19 91.91 02/22/2018 20:16:20 -78.16, 63.22 91.90 1.65 4
14 02/22/2018 21:06:56 78.16,-129.42 88.09 02/22/2018 21:07:18 78.14,-129.39 88.07 2.31 22
15 02/22/2018 21:57:37 -78.13, 37.74 91.96 02/22/2018 21:58:20 -78.15, 37.77 91.93 2.81 43
16 02/22/2018 22:48:17 78.14,-154.87 88.04 02/22/2018 22:49:18 78.13,-154.83 88.04 1.41 61




NCC Satellite Simultaneous Nadir Overpasses (SNOs) Prediction Service
